Probability
33 32 29 24 22 25 28 27 22 21 25 28 28 28 28 25 24 23 19 15 12 11 12 12 14 16 17 17 20 20 14 10 10 7 3 2 3 5 6 7 6 5 5
32 30 26 21 20 23 26 26 25 25 27 28 28 28 27 24 22 19 15 12 10 9 10 11 12 12 15 17 18 18 13 9 8 7 4 1 1 2 3 4 5 5 5
30 28 24 20 19 21 23 26 29 31 31 29 27 25 23 22 20 16 11 8 7 7 8 8 8 9 11 14 16 15 11 8 7 7 5 2 0 0 1 3 4 5 5
28 27 25 22 20 20 23 29 33 35 34 30 25 20 19 19 18 15 10 7 6 5 5 6 7 8 8 10 12 12 11 9 7 7 6 3 1 0 1 2 3 4 6
25 27 27 25 22 21 24 30 34 34 31 27 24 22 21 19 17 13 9 7 6 5 4 5 6 6 6 7 10 11 11 10 8 6 5 4 2 1 0 1 2 4 5
20 23 25 25 23 22 23 26 28 28 25 23 23 24 25 22 17 12 7 5 4 4 3 3 4 4 5 6 8 10 10 8 6 5 4 3 3 2 1 0 1 2 3
17 19 21 22 23 24 23 20 19 20 20 20 21 24 24 21 16 11 6 4 4 3 2 2 2 2 3 5 6 7 7 5 4 3 3 3 3 3 2 1 0 1 2
15 17 20 22 25 26 23 18 15 16 18 19 19 21 20 17 14 10 7 5 4 4 2 1 1 1 2 3 5 5 4 3 3 3 3 3 3 4 4 3 2 1 2
12 16 20 24 28 27 23 18 16 16 15 15 15 16 15 13 11 9 7 6 5 4 2 1 0 1 2 2 3 4 3 3 3 3 3 3 3 4 4 4 4 3 2
11 14 20 26 29 28 24 21 19 17 13 10 10 10 10 10 9 6 5 5 5 3 1 0 0 1 1 1 2 3 3 3 3 3 3 3 3 2 2 2 4 4 3
13 15 20 26 28 27 24 22 20 17 12 9 8 7 7 7 5 4 3 3 3 2 1 0 0 0 0 0 1 1 2 3 3 3 3 2 1 1 0 0 1 2 2
17 19 23 27 28 26 22 20 18 14 10 9 8 7 6 5 4 3 3 2 1 1 0 0 0 0 0 0 0 0 1 2 3 3 2 1 0 0 0 0 0 0 1
22 23 25 28 29 26 20 16 15 11 7 6 7 8 7 4 3 4 3 3 1 0 1 1 1 0 0 0 0 0 0 1 2 3 2 1 0 0 0 0 0 1 2
24 25 27 27 28 25 19 15 13 10 6 5 5 6 5 4 3 4 4 4 2 1 1 1 1 0 0 0 0 0 0 0 1 2 2 1 0 0 0 0 0 1 2
25 27 28 27 26 23 18 14 12 9 7 4 3 3 3 3 3 3 3 3 3 1 1 1 0 0 0 0 0 0 0 0 0 1 1 0 0 0 0 0 0 0 1
24 25 26 26 25 22 18 13 9 8 7 4 1 1 2 2 2 1 1 2 3 3 2 1 0 0 0 0 0 0 0 0 0 0 0 0 0 0 0 0 0 0 0
22 23 23 23 23 22 18 12 7 6 6 3 1 0 1 1 1 0 0 2 3 4 3 1 1 0 0 0 0 0 0 0 0 0 0 0 0 0 0 0 0 0 0
20 21 22 21 20 20 17 11 6 4 3 3 1 0 0 0 0 0 1 1 3 5 4 3 2 1 0 0 0 0 0 0 0 0 0 0 0 0 0 0 0 0 0
19 20 20 18 18 17 14 9 5 2 1 2 2 1 1 1 1 1 1 2 4 5 4 4 3 2 1 0 0 0 0 0 0 0 0 0 1 0 0 0 0 0 0
17 17 17 16 16 16 13 9 5 3 1 1 2 3 3 4 4 4 4 4 5 5 5 5 4 2 1 0 0 0 0 0 0 0 0 0 0 0 0 0 0 0 0
16 15 15 16 17 16 14 10 5 3 2 2 2 4 6 7 7 7 7 7 7 7 6 5 4 2 0 0 0 0 0 0 0 0 0 0 0 0 0 0 0 0 0
16 14 13 16 18 18 16 11 8 5 4 4 4 6 9 10 9 9 10 10 9 7 5 5 4 2 1 0 0 0 0 0 0 0 0 0 0 0 0 0 0 0 0
15 13 12 15 18 19 17 14 11 9 6 5 6 8 10 11 11 10 9 9 8 5 4 3 4 3 1 0 0 0 0 0 0 0 0 0 0 0 0 0 0 0 0
14 14 13 15 16 17 16 15 14 12 9 8 8 10 10 11 13 12 8 6 6 5 4 3 3 2 1 0 0 0 0 0 0 0 0 0 0 0 0 0 0 0 0
15 15 15 15 14 14 14 14 14 13 12 11 11 10 10 10 12 11 6 4 4 4 4 3 2 1 1 1 0 0 0 0 0 0 0 0 0 0 0 0 0 0 0
16 17 17 15 12 11 12 13 13 13 13 13 12 11 9 10 9 7 4 2 2 2 2 1 1 0 0 1 0 0 0 0 0 0 0 0 0 0 0 0 0 0 0
Wind_Speed
8 7 6 6 5 5 5 3 2 2 1 1 0 0 0 1 1 1 1 0 1 2 3 2 2 2 1 2 2 2 3 3 2 3 3 3 3 3 3 3 3 4 5
7 7 6 5 5 5 4 4 3 2 1 1 1 1 0 1 0 1 0 1 1 2 2 1 2 2 1 2 2 2 2 3 2 2 3 2 2 2 3 2 3 4 3
8 7 5 5 5 4 4 3 3 2 1 1 0 0 0 0 1 1 0 1 2 1 2 2 2 2 2 1 2 2 3 3 3 1 1 2 2 2 2 3 3 2 2
8 7 6 5 4 4 4 4 3 3 1 1 0 1 0 1 1 1 1 2 2 2 1 1 1 2 2 2 3 2 2 3 3 2 2 2 2 2 2 2 2 3 3
7 7 6 5 4 4 4 4 4 3 2 1 1 0 1 1 1 1 1 2 2 1 1 1 1 2 2 2 2 3 3 2 2 2 2 2 2 3 3 3 2 2 1
5 6 6 5 4 4 4 4 4 3 2 1 1 1 0 1 1 1 1 1 1 1 1 1 1 1 1 2 2 3 3 2 2 2 2 2 2 2 2 2 3 2 2
4 5 5 5 5 5 4 4 4 3 2 2 1 1 0 1 1 1 1 1 1 1 2 2 1 1 1 2 2 2 2 2 2 2 2 2 2 1 2 2 3 3 2
4 5 5 5 5 5 4 4 3 3 2 2 1 1 0 1 1 1 1 1 1 1 1 1 1 2 2 2 1 2 2 1 2 2 1 1 2 1 2 2 2 3 2
5 5 5 6 6 5 4 4 3 3 2 2 2 2 1 0 0 0 1 1 1 1 1 1 1 2 2 1 1 1 1 1 1 2 1 1 2 1 2 2 2 2 2
5 5 5 6 6 5 5 4 4 3 2 2 2 2 1 0 0 1 1 1 2 2 1 1 2 2 2 1 1 1 1 1 1 1 1 2 2 1 2 2 2 2 2
5 5 6 6 6 5 5 5 4 3 3 2 2 2 1 1 1 1 2 2 1 1 1 1 2 2 1 1 2 2 1 1 1 2 1 2 2 2 2 2 2 2 1
4 6 6 6 6 5 5 5 4 3 3 3 3 2 1 1 1 1 1 1 1 1 2 1 1 2 2 1 2 2 2 2 2 1 1 1 2 2 2 2 2 1 1
5 6 6 5 5 5 4 4 3 3 3 3 3 3 2 1 1 1 1 1 1 1 1 1 1 2 2 2 2 2 2 2 1 1 1 1 1 2 2 1 1 1 1
5 6 6 5 4 4 4 4 3 3 3 3 3 3 2 1 0 0 0 1 1 1 1 1 1 1 2 3 3 4 2 2 2 1 1 2 2 2 3 2 1 1 1
5 5 5 4 4 4 4 3 3 3 3 3 3 2 2 1 1 0 1 1 1 2 2 2 2 2 2 3 4 4 4 3 2 1 1 1 1 1 1 1 1 2 1
4 5 5 5 4 4 3 3 3 3 3 3 2 2 2 2 1 1 1 1 1 2 2 2 2 2 3 4 4 4 4 3 3 2 2 1 1 1 1 2 2 2 2
4 5 5 4 4 4 3 2 3 3 3 3 3 2 1 1 1 1 1 1 1 1 2 2 2 2 3 3 4 5 4 3 3 3 3 3 4 2 1 2 2 2 2
4 4 4 4 4 4 3 2 2 2 2 2 2 2 1 1 1 1 1 1 1 1 1 1 2 1 2 3 4 4 2 2 2 2 3 3 4 5 4 2 0 0 1
4 3 3 4 5 4 3 3 2 2 2 2 2 1 1 2 1 1 1 1 1 1 1 1 2 2 2 3 3 3 2 1 2 2 3 2 2 4 5 3 2 1 1
4 3 3 3 5 4 4 3 2 2 2 2 2 2 2 1 1 1 0 0 1 1 1 1 1 1 2 2 3 3 2 2 2 1 1 2 2 3 3 2 2 2 2
4 3 3 2 3 5 4 3 2 2 2 2 2 1 1 2 1 1 1 1 1 1 1 1 1 1 2 2 1 2 2 3 3 2 2 2 3 4 4 2 2 3 3
3 3 2 2 2 4 4 3 3 2 2 2 2 1 0 1 1 1 1 2 1 1 1 1 1 0 1 1 0 1 2 3 3 3 2 2 3 4 4 3 3 4 4
2 2 2 2 2 3 4 4 3 3 2 2 2 2 1 1 1 1 2 1 0 1 1 1 1 0 0 1 1 2 4 4 2 3 4 4 6 5 3 3 4 3 2
1 1 2 2 2 2 4 4 4 3 3 2 2 2 2 2 2 2 1 1 1 1 1 1 1 1 1 1 1 2 2 3 3 3 4 5 5 4 4 3 2 1 1
1 2 2 2 2 3 3 4 4 4 3 3 3 3 3 3 2 2 1 1 1 0 1 2 2 2 2 2 2 2 2 3 3 4 3 2 1 1 1 1 1 1 1
2 2 2 3 3 3 3 4 4 4 4 3 3 3 3 3 3 3 2 1 2 2 2 0 1 1 1 2 3 4 5 6 5 3 3 2 2 2 2 1 1 0 1
Wind_Direction
146 139 142 142 138 134 138 142 135 137 136 124 267 226 220 267 263 130 99 2 318 318 294 285 281 272 265 275 275 277 278 281 279 288 288 266 252 238 231 225 226 226 218
138 132 138 144 147 147 154 160 155 154 160 169 227 226 272 259 185 77 112 322 317 314 304 311 290 296 278 277 282 283 280 286 285 277 294 282 274 267 263 239 224 225 222
147 146 148 151 155 158 163 157 149 146 151 211 155 17 280 297 32 5 5 310 300 312 322 317 312 301 285 276 277 273 284 281 283 253 255 283 281 291 258 246 236 219 217
152 152 155 161 164 160 152 142 146 138 142 136 84 319 324 357 349 342 350 323 310 308 302 296 303 299 299 301 290 304 295 285 284 279 243 238 254 270 285 277 247 223 216
155 156 162 162 166 160 150 144 136 140 137 149 157 280 6 356 355 354 352 327 320 313 326 293 304 306 304 310 309 307 296 278 279 284 281 281 264 253 256 278 282 269 240
149 154 155 154 155 147 142 141 137 138 142 144 132 120 355 312 314 332 336 328 327 327 349 325 350 318 308 304 304 301 298 302 300 297 296 288 284 275 277 276 277 269 266
147 146 155 158 155 143 139 131 129 145 156 148 135 131 268 254 260 309 306 323 321 330 355 344 330 315 300 288 300 296 297 307 314 304 309 316 305 304 288 280 282 274 261
146 150 150 148 147 140 130 131 134 148 158 143 136 153 231 275 42 359 327 298 301 317 360 337 332 318 304 305 308 294 297 317 315 312 319 305 304 304 294 273 279 284 270
144 138 133 135 135 135 132 138 139 148 162 150 160 163 178 271 6 299 302 332 320 332 28 350 338 315 319 320 315 292 300 316 307 298 302 309 296 296 292 287 277 268 273
136 130 130 128 129 133 132 130 136 153 167 156 176 146 170 207 56 34 34 19 356 9 4 349 333 317 307 312 301 290 280 287 290 286 297 300 302 305 304 294 287 272 253
131 129 131 130 128 128 131 134 142 151 154 146 124 101 106 71 52 50 44 35 359 342 337 330 321 308 303 319 293 280 264 273 281 290 307 319 330 336 319 311 310 300 253
120 122 126 132 133 135 136 137 146 152 148 133 123 112 101 78 52 32 25 11 3 344 335 335 334 328 348 327 308 319 344 322 302 298 309 321 332 331 312 313 310 312 299
113 118 124 125 134 141 137 136 138 134 132 127 123 114 109 98 72 35 352 336 352 336 331 332 337 335 343 339 342 344 339 338 336 343 329 313 327 324 311 306 302 302 293
121 123 123 124 131 136 135 135 135 132 126 123 121 126 131 127 149 97 350 343 355 344 337 340 338 340 7 14 354 334 339 352 360 4 352 337 346 332 311 299 287 281 266
124 122 126 129 132 130 133 130 129 126 124 122 124 131 140 158 159 97 38 23 9 358 355 338 345 350 19 15 356 344 346 352 351 354 346 352 5 343 318 326 311 290 263
135 130 127 126 124 125 129 131 135 134 136 137 140 139 160 161 134 127 91 43 10 1 345 338 2 9 15 24 17 5 341 342 345 342 326 309 302 299 290 291 275 254 242
119 127 131 129 125 123 121 133 136 141 150 144 139 139 158 146 116 66 64 34 11 351 347 357 19 27 37 29 14 3 332 331 339 336 331 331 352 338 316 277 257 246 245
101 108 122 132 132 132 136 142 139 148 150 140 135 142 147 108 110 93 63 27 21 359 345 349 6 24 46 37 13 354 337 345 351 350 354 356 349 352 348 311 290 252 271
98 104 121 143 142 141 141 141 143 140 147 135 132 132 108 96 89 80 59 29 8 327 323 335 350 35 56 29 9 359 340 343 346 353 9 355 357 347 347 339 329 304 284
93 101 111 136 144 144 149 163 160 153 154 145 133 130 130 121 117 83 14 345 306 297 303 333 346 49 70 45 18 3 336 335 331 334 8 16 347 340 341 327 327 316 304
100 103 109 123 146 147 155 169 161 160 161 149 130 126 147 152 145 139 255 259 260 266 277 293 341 77 102 105 51 8 338 330 328 330 343 356 359 338 332 313 280 280 282
112 115 120 125 141 153 157 163 167 162 158 151 139 125 152 215 161 180 233 253 264 262 261 265 273 160 129 112 165 249 288 313 327 331 341 350 344 333 316 306 287 295 298
126 138 148 145 141 166 172 178 180 175 172 163 161 161 181 212 191 209 228 221 264 281 290 298 324 349 136 164 199 255 272 294 301 313 310 305 294 298 294 278 283 287 284
151 160 169 179 180 192 189 181 180 180 183 185 187 190 195 202 188 218 205 186 230 275 296 327 348 360 8 21 360 306 287 283 283 294 286 276 277 274 272 272 264 243 281
196 190 191 196 205 209 203 192 184 180 190 201 210 211 203 201 187 186 207 186 100 61 335 352 354 352 354 338 316 308 314 315 323 313 289 278 281 294 291 288 254 225 252
219 207 205 216 222 222 214 199 188 189 195 208 220 224 210 195 195 187 174 113 167 178 160 153 329 353 339 279 302 310 307 305 319 316 294 299 300 296 298 294 280 245 261